Regional Weather Roundup
Issued by NWS Pendleton, OR

Home | Current Version | Previous Version | Text Only | Print | Product List | Glossary On
Versions: 1 2 3 4 5 6 7 8 9 10 11 12 13 14 15 16 17 18 19 20 21 22 23 24 25 26 27 28 29 30 31 32 33 34 35 36 37 38 39 40 41 42 43 44 45 46 47 48 49 50
000
ASUS46 KPDT 211525
RWRPDT
PENDLETON REGIONAL WEATHER ROUNDUP
NATIONAL WEATHER SERVICE PENDLETON OREGON
700 AM PST SUN DEC 21 2014

NOTE: FAIR INDICATES FEW OR NO CLOUDS BELOW 12,000 FEET WITH NO
SIGNIFICANT WEATHER AND/OR OBSTRUCTIONS TO VISIBILITY.

# INDICATES UNOFFICIAL STATION AND DATA

WAZ520-211610-
EAST SLOPES OF WASHINGTON CASCADES

CITY            SKY/WX      TMP DP  RH  WIND    PRES   REMARKS
#BUMPING DAM    N/A         34  N/A N/A W2      N/A
#CLE ELUM HS    N/A         43  40  89  W6      29.70R
#CLE ELUM 2NW   N/A         42  40  93  W3      N/A
#CLIFFDEL 2NW   N/A         39  38  96  NW2     N/A
#GLENWOOD       N/A         46  43  89  SW2     29.86R
#MANASTASH CYN  N/A         38  35  89  CALM    29.74R
#NILE           N/A         36  36  100 CALM    29.07R
#TEANAWAY 4NE   N/A         44  41  89  CALM    N/A
#TROUT LAKE HS  N/A         46  44  93  NW6     N/A
#TROUT LAKE 1NE N/A         46  43  89  W1      29.90R
$$

WAZ521-211610-
SIMCOE HIGHLANDS

CITY            SKY/WX      TMP DP  RH  WIND    PRES   REMARKS
#BICKLETON HS   N/A         46  29  51  W16G25  34.25S WCI 39
#CENTERVILLE 4W N/A         47  45  93  NW9     29.60R
#GOLDENDALE     N/A         49  42  77  W21G32  N/A    WCI 42
#GOLDENDALE 1NE N/A         48  38  68  SW5     N/A
#GOLDENDALE 1S  N/A         47  44  89  W13     29.81R WCI 41
#GOLDENDALE 5WNWN/A         47  42  83  W13     29.85R WCI 41
#GOODNOE HILLS  N/A         50  43  77  W8      N/A
#LYLE 6NE       N/A         47  45  93  SW7     29.86R
$$

WAZ026-211610-
KITTITAS VALLEY

CITY            SKY/WX      TMP DP  RH  WIND    PRES   REMARKS
ELLENSBURG AP   LGT RAIN    44  38  79  W7      29.73R
#ELLENSBURG CWU N/A         45  40  82  W5      29.72R
#ELLENSBURG 3NE N/A         43  40  89  NW2     29.76R
#ELLENSBURG     N/A         47  44  89  W1      N/A
#ELLENSBURG 1E  N/A         46  36  68  W1      N/A
#KITTITAS 4N    N/A         42  38  86  CALM    29.79R
#KITTITAS 3S    N/A         47  40  76  W9      29.75R
#THORP 6N       N/A         43  40  89  W14G25  29.80R WCI 36
$$

WAZ027-211610-
YAKIMA VALLEY

CITY            SKY/WX      TMP DP  RH  WIND    PRES   REMARKS
YAKIMA AIRPORT  CLOUDY      49  38  66  SW6     29.76R
YAKIMA-VAGABOND PTCLDY      47  39  74  W8      29.77R
#DONALD 2NE     N/A         51  37  59  E5      28.64R
#GRANDVIEW      N/A         51  39  63  W1      29.79R
#MABTON         N/A         53  43  69  W5      29.77R
#MOXEE 2E       N/A         35  34  96  CALM    29.98R
#NACHES 2SW     N/A         45  41  86  W6      29.74R
#OUTLOOK DOT    N/A         N/A N/A N/A W9      N/A
#SELAH 8E       N/A         45  38  76  W10G24  N/A
#TERRACE HTS    N/A         49  41  74  N3      29.76R
#WAPATO 4NE     N/A         51  37  59  E5      28.64R
#WEST VALLEY    N/A         50  40  68  W1      29.77R
#W YAKIMA       N/A         50  40  68  W3      29.80R
#WHITE SWAN 5E  N/A         53  42  66  SW16G26 29.79R
#WILEY CITY 3W  N/A         40  28  62  CALM    29.76R
$$

WAZ028-211610-
LOWER COLUMBIA BASIN...WASHINGTON

CITY            SKY/WX      TMP DP  RH  WIND    PRES   REMARKS
PASCO           MOCLDY      54  42  64  SW18    29.74R
PROSSER AWOS    N/A         50  41  71  SW7     29.80R
RICHLAND AWOS   MOCLDY      54  41  61  SW21G28 29.74
#BASIN CITY 5SW N/A         51  42  71  NW14    29.73R
#CONNELL 5N     N/A         42  40  93  NE2     29.74R
#CONNELL 5NW    N/A         46  41  83  CALM    29.71R
#ELTOPIA        N/A         52  43  71  CALM    29.73R
#ELTOPIA 6NW    N/A         48  42  80  W2      28.71R
#KAHLOTUS       N/A         47  43  86  W3      29.76R
#KENNEWICK 3S   N/A         51  44  77  SW5     29.77R
#PASCO-BROADMOORN/A         54  41  61  SW13    29.67R
#PATERSON       N/A         53  45  74  W18     29.78R
#PROSSER        N/A         51  38  61  SW6     29.77R
#SAGEMOOR 2W    N/A         52  42  69  SW18G26 29.59R
#TOUCHET 2S     N/A         55  46  72  SW15    29.77R
#WEST PASCO     N/A         54  44  69  SW8     29.74R
$$

WAZ029-211610-
FOOTHILLS OF THE BLUES...WASHINGTON

CITY            SKY/WX      TMP DP  RH  WIND    PRES   REMARKS
WALLA WALLA AP  PTCLDY      53  43  69  SW22    29.78R
#COLLEGE PLACE  N/A         55  41  59  SW9G25  29.81R
#DAYTON SCHOOL  N/A         50  41  71  S9      29.78R
#LOWDEN 2SE     N/A         55  45  69  W15     29.75R
#PLEASANT VIEW 1N/A         45  42  89  SW6     29.81R
#PRESCOTT       N/A         52  46  80  SW9     29.74R
#SUDBURY        N/A         55  N/A N/A CALM    N/A
#WHITMAN COLLEGEN/A         54  44  69  SW12G26 29.83R
#WAITSBURG 5S   N/A         48  43  83  SW16G26 29.85R WCI 42
#WALLA WALLA 5E N/A         52  45  77  SW21G28 N/A
#WALLA WALLA U  N/A         56  46  69  SW3     29.77R
#WHITMAN MISSIONN/A         55  46  72  SW15G24 29.79R
$$

WAZ030-211610-
BLUE MOUNTAINS...WASHINGTON

CITY            SKY/WX      TMP DP  RH  WIND    PRES   REMARKS
#DIXIE 5SE      N/A         44  39  82  SW20G31 29.71R WCI 36
#SKI BLUEWOOD   N/A         37  34  89  NE12G24 29.84R WCI 29
$$

ORZ009-041-WAZ024-211610-
COLUMBIA RIVER GORGE

CITY            SKY/WX      TMP DP  RH  WIND    PRES   REMARKS
HOOD RIVER AP   LGT DRIZZLE 50  46  86  W6      29.87R
THE DALLES AP   LGT RAIN    52  48  86  W3      29.86R
#ARLINGTON AIRPON/A         52  46  80  W20     29.99S
#ARLINGTON HS   N/A         55  46  72  NW10    29.76R
#CELILO DOT     N/A         53  45  74  SW6     N/A
#LYLE           N/A         53  50  89  W1      29.88R
#MARYHILL 2W    N/A         51  49  93  SE3     N/A
#MOSIER 1S      N/A         49  45  86  W8      29.88R
#MURDOCK        N/A         52  50  93  NW7     29.89R
#RUFUS DOT      N/A         N/A N/A N/A CALM    N/A

$$

ORZ510-211610-
NORTH CENTRAL OREGON

CITY            SKY/WX      TMP DP  RH  WIND    PRES   REMARKS
#CHENOWITH 1W   N/A         48  45  89  W22     N/A    WCI 41
#COW CYN RST AREN/A         44  38  79  W16G26  N/A    WCI 37
#DUFUR 9E       N/A         48  40  74  SW23G31 29.92R WCI 40
#GRASS VALLEY   N/A         45  41  86  S6      N/A
#GRASS VALLEY 1SN/A         45  42  89  SW15G25 29.90R WCI 38
#KENT DOT       N/A         45  35  68  SW29    N/A    WCI 35
#MAUPIN SCHOOL  N/A         52  42  69  W7      29.94R
#MORO SCHOOL    N/A         49  46  89  W12     29.87R WCI 44
#SHANIKO 4NW    N/A         41  37  86  W23G35  29.89R WCI 31
#TYGH VALLEY 2NEN/A         50  43  77  SW1     29.90R
#WAPANITIA AIRPON/A         47  41  79  S1      29.93R
#WASCO DOT      N/A         49  45  86  W8      N/A
#WASCO AIRPORT  N/A         48  45  89  W12     N/A    WCI 43
#WASCO 5NE      N/A         47  45  93  SW8     29.84S
$$

ORZ511-211610-
CENTRAL OREGON

CITY            SKY/WX      TMP DP  RH  WIND    PRES   REMARKS
BEND AIRPORT    LGT RAIN    46  45  96  CALM    29.98R
MADRAS AIRPORT  LGT RAIN    45  43  93  N3      29.97R
PRINEVILLE AP   CLOUDY      48  43  83  W16     29.98R WCI 42
REDMOND AIRPORT LGT RAIN    47  44  89  NW6     29.95R
#BEND 1SW       N/A         43  43  100 SW2     N/A
#BEND-KIM LN    N/A         45  44  96  CALM    29.93R
#CROOKED RVR RANN/A         48  43  83  N2      29.97R
#CULVER         N/A         48  42  80  CALM    29.92R
#LAKE BILLY CHINN/A         48  36  63  SE3     30.04R
#POWELL BUTTE 3EN/A         48  45  89  W6      N/A
#POWELL BUTTE   N/A         46  43  89  W3      29.62R
#PRINEVILLE 3N  N/A         47  44  89  W3      29.93R
#WARM SPRINGS   N/A         51  46  83  SW5     29.93R


ORZ509-211610-
EAST SLOPES OF OREGON CASCADES

CITY            SKY/WX      TMP DP  RH  WIND    PRES   REMARKS
#BLUE BOX PASS  N/A         37  -12 11  NW2     N/A
#BLACK BUTTE RNCN/A         44  43  96  CALM    29.97R
#CAMP SHERMAN   N/A         44  42  93  CALM    29.96R
#LA PINE DOT    N/A         44  42  93  SW5     N/A
#LA PINE 4NW    N/A         44  41  89  CALM    30.04R
#LAVA BUTTE DOT N/A         43  41  93  CALM    N/A
#MT BACHELOR-MIDN/A         33  32  96  E33G61  N/A    WCI 18
#SISTERS AIRPOR N/A         46  46  100 N12     30.17S WCI 40
#SISTERS ODOT   N/A         46  N/A N/A SE1     N/A
#SISTERS 1NW    N/A         47  42  83  N8      N/A
#SISTERS 3N     N/A         44  42  93  NW3     30.01R
#SUNRIVER       N/A         44  43  96  SW7     29.88R
#TUMALO 3W      N/A         45  43  93  NW5     29.84R
#WANOGA BUTTE D N/A         38  37  96  NW17G26 N/A    WCI 29

$$

ORZ044-211610-
LOWER COLUMBIA BASIN...OREGON

CITY            SKY/WX      TMP DP  RH  WIND    PRES   REMARKS
HERMISTON       MOCLDY      55  41  59  W22G41  29.80R
#BOARDMAN 3W    N/A         54  44  69  SW31    29.50S
#BOARDMAN 8SW   N/A         53  46  77  W20     29.84R
#ECHO 8SW       N/A         54  42  64  W21G33  29.79R
#IONE SCHOOL    N/A         51  36  56  W7      29.88R
#IRRIGON 4NW    N/A         54  47  77  SW21G32 N/A
#UMATILLA SCHOOLN/A         53  49  86  W14     29.82R
#UMATILLA       N/A         55  43  64  SW13G33 29.78R
$$

ORZ507-211610-
NORTHERN FOOTHILLS OF THE BLUES

CITY            SKY/WX      TMP DP  RH  WIND    PRES   REMARKS
PENDLETON AIRPT CLOUDY      51  42  71  W29G37  29.81R
#ADAMS 3WNW     N/A         50  44  80  SW15G26 29.82R
#ATHENA         N/A         50  45  83  W14G25  29.86R
#HELIX SCHOOL   N/A         49  45  86  W8      29.83R
#HELIX 3N       N/A         48  44  86  SW16G25 29.80R WCI 42
#HOLDMAN 5SE    N/A         51  45  80  W16G26  29.83R
#HOLDMAN 6E     N/A         49  45  86  N21G28  29.61R WCI 42
#M-F GROVE ELEM N/A         53  43  69  SW10    29.79R
#M-FREEWATER 5SEN/A         51  44  77  SW15G24 29.82R
#PENDLETON DNTN N/A         54  39  57  NW6     28.61R
#PDT AQUATIC CTRN/A         55  41  59  W18G26  29.82R
#PENDLETON 5NE  N/A         52  44  74  W7      29.78R
#PENDLETON 7NW  N/A         51  43  74  W17G29  26.48S
#PILOT ROCK     N/A         52  40  63  CALM    29.87R
#TUTUILLA       N/A         53  44  71  W17G26  29.84R
#UMAPINE 2E     N/A         56  46  69  SW15G28 29.76R
#WESTON SCHOOL  N/A         49  42  77  W17G32  29.82R WCI 43

$$

ORZ508-211610-
SOUTHERN FOOTHILLS OF THE BLUES

CITY            SKY/WX      TMP DP  RH  WIND    PRES   REMARKS
LEXINGTON       MOCLDY      50  46  86  W13     29.89R
#AJAX           N/A         49  37  63  S24G38  29.79R WCI 42
#CONDON SCHOOL  N/A         47  42  83  CALM    29.85R
#CONDON 5W      N/A         47  40  76  W28G38  29.84R WCI 38
#FOSSIL SCHOOL  N/A         50  39  66  W22G37  29.90R
#HEPPNER EOC    N/A         50  43  77  W8      29.81R
#HEPPNER 4NE    N/A         47  44  89  W9      29.84R
#LEXINGTON 2SE  N/A         52  46  80  NW9     29.83R
#MIKKALO        N/A         48  43  83  NW5     29.87R
#OLEX 4N        N/A         50  46  86  W16     29.86R
#RUGGS 5NE      N/A         47  42  83  W16     30.01S WCI 41
#RUGGS 2SW      N/A         48  40  74  W21G29  29.87R WCI 41

$$

ORZ502-503-211610-
BLUE MOUNTAINS

CITY            SKY/WX      TMP DP  RH  WIND    PRES   REMARKS
MEACHAM         CLOUDY      44  39  82  W13     29.82R WCI 38
#BATTLE MTN DOT N/A         41  41  100 N1      N/A
#HARDMAN 10S    N/A         40  37  89  NW1     30.04R
#HEPPNER 15SE   N/A         40  38  92  W5      29.75R
#LADD CYN SMT   N/A         44  37  76  W20     N/A    WCI 36
#LADD CREEK ODOTN/A         45  41  86  CALM    N/A
#LONG CREEK HS  N/A         44  43  96  CALM    29.84R
#N POWDER DOT   N/A         40  40  100 CALM    N/A
#PIKES PEAK     N/A         42  39  89  SW43G55 27.99S WCI 29
#TOLLGATE       N/A         36  36  100 W12G26  29.74R
#TROY SCHOOL    N/A         49  45  86  SW7     29.64R
#UKIAH          N/A         44  40  86  W1      29.93R
#WESTON 4E      N/A         43  41  93  SW14G32 29.79R WCI 36
$$

ORZ505-211610-
JOHN DAY BASIN

CITY            SKY/WX      TMP DP  RH  WIND    PRES   REMARKS
JOHN DAY        RAIN        47  45  93  W13     29.89R WCI 41
#JOHN DAY KJDY  N/A         47  42  83  CALM    29.94R
#DAYVILLE SCHOOLN/A         32  29  89  CALM    30.16S
#MONUMENT HS    N/A         51  43  74  W2      29.89R
#MT. VERNON 5SE N/A         44  42  93  CALM    29.84R
#WINLOCK        N/A         45  40  82  E7      29.98R
$$

ORZ506-211610-
OCHOCO AND JOHN DAY HIGHLANDS

CITY            SKY/WX      TMP DP  RH  WIND    PRES   REMARKS
#BUCK CREEK DOT N/A         48  48  100 SW16    N/A    WCI 42
#HORSE RIDGE DO N/A         46  42  86  W7      N/A
#KEYES SMT DOT  N/A         43  41  93  W8G24   N/A
#PRAIRIE CITY   N/A         43  41  93  W7      29.91R
#SENECA         N/A         42  N/A N/A W8      N/A
#SENECA 9NW     N/A         40  39  96  CALM    29.94R
$$

ORZ049-211610-
GRANDE RONDE VALLEY

CITY            SKY/WX      TMP DP  RH  WIND    PRES   REMARKS
LA GRANDE       MOCLDY      48  36  63  W16G29  29.82R WCI 42
#COVE           N/A         48  42  80  NW9     30.03S
#COVE SCHOOL    N/A         47  40  76  NW3     29.84R
#COVE 6NW       N/A         47  39  74  W16G26  29.90R WCI 41
#ELGIN 3N       N/A         50  34  54  SW14    29.56R
#ELGIN 1E       N/A         50  38  63  W7      N/A
#ISLAND CITY 4N N/A         52  50  93  CALM    29.92R
#LADD CYN DOT   N/A         48  39  71  W3      N/A
#UNION 1S       N/A         48  42  80  NW2     29.78R
$$

ORZ050-211610-
WALLOWA COUNTY

CITY            SKY/WX      TMP DP  RH  WIND    PRES   REMARKS
JOSEPH AIRPORT  LGT RAIN    43  34  70  NW6     29.79R
#ENTERPRISE AP  N/A         45  34  65  W21G35  29.75R WCI 37
#ENTERPRISE HS  N/A         46  37  71  W13G25  29.82R WCI 40
#IMNAHA SCHOOL  N/A         55  40  57  N6      29.80R
#IMNAHA 10S     N/A         51  37  59  S7G28   29.80R
#JOSEPH 3N      N/A         43  35  73  NW20G35 29.83R WCI 34
#JOSEPH 3W      N/A         38  34  85  CALM    29.64R
#LOSTINE        N/A         46  36  68  NE6     29.63R
#MT HOWARD 8000 N/A         28  27  96  W7G25   29.75R
#PROMISE 1S     N/A         43  37  79  SE15    29.90R WCI 36
#SHEEP RDG 7000 N/A         30  29  96  CALM    29.72R
#WALLOWA SCHOOL N/A         48  37  65  N7      30.78R



$$



USA.gov is the U.S. government's official web portal to all federal, state and local government web resources and services.